Location: Fisher's Paradise
(46.5411°N, 80.0984°W)
Time: 11:57:57
(UTC-05:00)

OTV 5 (USA 277) - Pass Details

Date: 28 October 2019
Orbit: 310 x 324 km, 54.5° (Epoch: 17 October)

Event Time Altitude Azimuth Distance (km) Brightness Sun altitude
Rises 19:07:17 0° 188° (S) 2,046 ? -10.1°
Reaches altitude 10° 19:10:10 10° 153° (SSE) 1,225 ? -10.6°
Maximum altitude 19:11:12 12° 130° (SE) 1,143 ? -10.8°
Enters shadow 19:11:24 12° 126° (SE) 1,146 ? -10.8°
